Location: Tel Aviv
(32.0670°N, 34.7670°E)
Time: 10:02:28
(UTC+02:00)

Vanguard 3 - All Passes

Search period start: 05 December 2023 00:00
Search period end: 15 December 2023 00:00
Orbit: 507 x 3241 km, 33.3° (Epoch: 04 December)

Date Brightness Start Highest point End Pass type
(mag) Time Alt. Az. Time Alt. Az. Time Alt. Az.
05 Dec - 00:44:01 10° W 00:51:31 83° N 00:56:01 10° E night (unlit)
05 Dec - 02:58:17 10° W 03:02:32 33° SSW 03:05:56 10° SE night (unlit)
05 Dec - 16:44:21 10° S 16:52:29 14° SE 16:59:36 10° ESE visible
05 Dec - 18:52:12 10° SSW 19:07:32 39° SSE 19:17:32 10° E visible
05 Dec - 21:07:18 10° WSW 21:21:36 73° SSE 21:29:25 10° E visible
05 Dec - 23:24:28 10° W 23:34:29 81° N 23:40:02 10° E night (unlit)
06 Dec - 01:40:02 10° W 01:46:17 67° SSW 01:50:21 10° ESE night (unlit)
06 Dec - 03:55:17 10° WSW 03:56:40 11° SW 03:57:59 10° SSW visible
06 Dec - 17:34:20 10° SSW 17:48:37 28° SSE 17:59:18 10° E visible
06 Dec - 19:47:11 10° SW 20:03:22 58° SSE 20:12:54 10° E visible
06 Dec - 22:04:07 10° WSW 22:17:02 89° N 22:23:58 10° E visible
07 Dec - 00:21:04 10° W 00:29:35 87° N 00:34:30 10° E night (unlit)
07 Dec - 02:35:59 10° W 02:40:38 30° SSW 02:44:06 10° SSE night (unlit)
07 Dec - 16:18:43 10° S 16:29:27 18° SE 16:38:44 10° ESE daylight
07 Dec - 18:27:50 10° SW 18:44:36 44° SSE 18:55:44 10° E visible
07 Dec - 20:43:26 10° WSW 20:59:04 78° SSE 21:07:42 10° ENE visible
07 Dec - 23:01:09 10° W 23:12:23 82° N 23:18:29 10° E visible
08 Dec - 01:17:17 10° W 01:24:23 63° SSW 01:28:45 10° ESE night (unlit)
08 Dec - 03:34:22 10° SW 03:34:36 10° SW 03:34:50 10° SW night (unlit)
08 Dec - 17:09:46 10° SSW 17:25:29 32° SE 17:37:30 10° E visible
08 Dec - 19:23:05 10° SW 19:40:32 63° SSE 19:51:03 10° E visible
08 Dec - 21:40:28 10° W 21:54:39 87° N 22:02:19 10° E visible
08 Dec - 23:57:56 10° W 00:07:35 89° S 00:12:57 10° ESE night (unlit)
09 Dec - 02:13:32 10° W 02:18:38 28° SW 02:22:17 10° SSE night (unlit)
09 Dec - 15:53:44 10° S 16:06:15 21° SE 16:17:15 10° E daylight
09 Dec - 18:03:36 10° SW 18:21:30 49° SSE 18:33:46 10° E visible
09 Dec - 20:19:31 10° WSW 20:36:22 82° SSE 20:45:54 10° ENE visible
09 Dec - 22:37:40 10° W 22:50:10 83° N 22:56:53 10° E visible
10 Dec - 00:54:21 10° WNW 01:02:22 59° SSW 01:07:06 10° SE night (unlit)
10 Dec - 14:44:13 10° SE 14:47:03 10° SE 14:49:51 10° SE daylight
10 Dec - 16:45:26 10° SSW 17:02:11 36° SE 17:15:28 10° E visible
10 Dec - 18:59:02 10° SW 19:17:31 68° SSE 19:29:06 10° ENE visible
10 Dec - 21:16:43 10° W 21:32:10 86° N 21:40:36 10° E visible
10 Dec - 23:34:37 10° W 23:45:27 85° SSW 23:51:22 10° ESE night (unlit)
11 Dec - 01:50:53 10° W 01:56:34 27° SW 02:00:28 10° SSE night (unlit)
11 Dec - 15:29:10 10° S 15:42:53 24° SE 15:55:19 10° E daylight
11 Dec - 17:39:30 10° SW 17:58:12 54° SSE 18:11:38 10° E visible
11 Dec - 19:55:37 10° WSW 20:13:32 85° SSE 20:24:01 10° E visible
11 Dec - 22:14:03 10° W 22:27:50 84° N 22:35:15 10° E visible
12 Dec - 00:31:16 10° WNW 00:40:16 56° SSW 00:45:27 10° SE night (unlit)
12 Dec - 14:17:05 10° SSE 14:23:47 13° SE 14:30:26 10° ESE daylight
12 Dec - 16:21:20 10° SSW 16:38:43 40° SE 16:53:12 10° E daylight
12 Dec - 18:35:04 10° WSW 18:54:20 72° SSE 19:07:00 10° ENE visible
12 Dec - 20:52:54 10° W 21:09:32 85° N 21:18:49 10° E visible
12 Dec - 23:11:09 10° WNW 23:23:14 82° SSW 23:29:44 10° ESE visible
13 Dec - 01:28:04 10° W 01:34:23 26° SW 01:38:38 10° SSE night (unlit)
13 Dec - 15:04:56 10° S 15:19:23 27° SE 15:33:04 10° E daylight
13 Dec - 17:15:33 10° SW 17:34:45 58° SSE 17:49:21 10° ENE visible
13 Dec - 19:31:43 10° WSW 19:50:34 88° SSE 20:02:02 10° E visible
13 Dec - 21:50:20 10° W 22:05:23 86° N 22:13:33 10° E visible
14 Dec - 00:07:59 10° WNW 00:18:02 53° SSW 00:23:45 10° SE night (unlit)
14 Dec - 13:51:54 10° SSE 14:00:24 15° SE 14:09:05 10° ESE daylight
14 Dec - 15:57:26 10° SSW 16:15:07 43° SE 16:30:44 10° E daylight
14 Dec - 18:11:11 10° WSW 18:31:01 76° SSE 18:44:47 10° ENE visible
14 Dec - 20:29:03 10° W 20:46:45 85° N 20:56:58 10° E visible
14 Dec - 22:47:32 10° WNW 23:00:51 79° SSW 23:08:02 10° ESE visible
